Regional Weather Roundup
Issued by NWS Burlington, VT

Home | Current Version | Previous Version | Graphics & Text | Print | Product List | Glossary On
Versions: 1 2 3 4 5 6 7 8 9 10 11 12 13 14 15 16 17 18 19 20 21 22 23 24 25 26 27 28 29 30 31 32 33 34 35 36 37 38 39 40 41 42 43 44 45 46 47 48 49 50
000
ASUS41 KBTV 041310
RWRBTV
VERMONT REGIONAL WEATHER ROUNDUP
NATIONAL WEATHER SERVICE BURLINGTON VT
900 AM EDT FRI SEP 04 2015

NOTE: "FAIR" INDICATES FEW OR NO CLOUDS BELOW 12,000 FEET WITH NO
SIGNIFICANT WEATHER AND/OR OBSTRUCTIONS TO VISIBILITY.

* THESE REPORTS ARE NOT UNDER NWS QUALITY CONTROL AND/OR DO NOT
  REPORT WEATHER SUCH AS PRECIPITATION AND FOG.

VTZ001>019-041400-
_____VERMONT_____


CITY           SKY/WX    TMP DP  RH WIND       PRES   REMARKS
BURLINGTON     MOSUNNY   62  54  74 N7        30.17R
MONTPELIER     CLOUDY    55  54  96 CALM      30.22R FOG
MORRISVILLE    SUNNY     60  53  77 CALM      30.19R
ST. JOHNSBURY*   N/A     58  52  80 MISG      30.17R
LYNDONVILLE*   FAIR      59  54  83 CALM      30.20S
MIDDLEBURY*    FAIR      62  57  81 CALM      30.15S
RUTLAND*       SUNNY     64  43  45 E6        30.16R
SPRINGFIELD    CLOUDY    66  52  60 VRB3      30.18R
HIGHGATE*      FAIR      59  53  80 CALM      30.15S
NEWPORT*       CLOUDY    53  53  99 CALM      30.20R FOG
BENNINGTON     SUNNY     71  59  65 E8        30.12R
SUTTON*          N/A     63 N/A N/A MISG        N/A

_____LAKE CHAMPLAIN_____


CITY           SKY/WX    TMP DP  RH WIND       PRES   REMARKS

$$

NYZ007-026>031-035-052-083-041400-
_____NORTHERN NEW YORK_____


CITY           SKY/WX    TMP DP  RH WIND       PRES   REMARKS
PLATTSBURGH    SUNNY     61  51  70 CALM      30.17R
SARANAC LAKE   SUNNY     61  48  62 CALM      30.16R
MASSENA        SUNNY     62  52  69 NE8       30.17R
OGDENSBURG*    SUNNY     64  55  72 NE8       30.16R
POTSDAM*       SUNNY     61  55  82 E7        30.16R
WATERTOWN      SUNNY     64  57  78 NE12      30.12R
FT DRUM        SUNNY     63  56  78 E6        30.13R
ALBANY         MOSUNNY   70  55  59 N7        30.11R
GLENS FALLS    SUNNY     68  54  60 N9        30.13R

$$
NHZ002-005-011-041400-
_____NEW HAMPSHIRE_____


CITY           SKY/WX    TMP DP  RH WIND       PRES   REMARKS
LEBANON        SUNNY     66  57  72 N3        30.17R
KEENE          MOSUNNY   68  50  52 NE9       30.16R
MT WASHINGTON  FOG       50  50 100 W15         N/A  VSB 1/16
PLYMOUTH       FAIR      66  51  57 CALM      30.18R
WHITEFIELD     SUNNY     63  53  70 S3        30.18R

$$

_____REGIONAL QUEBEC LOCATIONS_____


CITY           SKY/WX    TMP DP  RH WIND       PRES   REMARKS
MONTREAL       MOSUNNY   64  54  68 N13       30.18R
QUEBEC CITY    MOSUNNY   61  50  67 E15       30.23R
SHERBROOKE     SUNNY     59  52  77 E5        30.19R

_____REGIONAL ONTARIO LOCATIONS_____


CITY           SKY/WX    TMP DP  RH WIND       PRES   REMARKS
OTTAWA         MOSUNNY   63  52  67 NE9       30.19R

______KEY______
VSB  - VISIBILITY IN MILES
WCI  - WIND CHILL INDEX
HX   - HEAT INDEX
$$
NNNN


USA.gov is the U.S. government's official web portal to all federal, state and local government web resources and services.